Time,TemperatureF,DewpointF,PressureIn,WindDirection,WindDirectionDegrees,WindSpeedMPH,WindSpeedGustMPH,Humidity,HourlyPrecipIn,Conditions,Clouds,dailyrainin,SoftwareType,DateUTC
2013-03-28 00:00:00,38.7,19.2,30.15,North,0,0.0,0.0,45,0.00,,CLR,0.00,VWS V14.01,2013-03-28 04:00:00,
2013-03-28 00:05:00,37.9,18.5,30.15,North,0,0.0,0.0,45,0.00,,CLR,0.00,VWS V14.01,2013-03-28 04:05:00,
2013-03-28 00:10:00,37.8,18.3,30.15,North,0,0.0,0.0,45,0.00,,CLR,0.00,VWS V14.01,2013-03-28 04:10:00,
2013-03-28 00:16:00,37.4,18.0,30.15,North,0,0.0,0.0,45,0.00,,CLR,0.00,VWS V14.01,2013-03-28 04:16:00,
2013-03-28 00:21:00,36.9,18.0,30.15,North,0,0.0,0.0,46,0.00,,CLR,0.00,VWS V14.01,2013-03-28 04:21:00,
2013-03-28 00:26:00,36.7,17.9,30.15,North,0,0.0,0.0,46,0.00,,CLR,0.00,VWS V14.01,2013-03-28 04:26:00,
2013-03-28 00:31:00,36.5,17.7,30.15,NNW,338,0.0,0.0,46,0.00,,CLR,0.00,VWS V14.01,2013-03-28 04:31:00,
2013-03-28 00:36:00,36.5,17.7,30.15,NNW,338,0.0,0.0,46,0.00,,CLR,0.00,VWS V14.01,2013-03-28 04:36:00,
2013-03-28 00:41:00,35.8,17.0,30.15,NNW,338,0.0,0.0,46,0.00,,CLR,0.00,VWS V14.01,2013-03-28 04:41:00,
2013-03-28 00:46:00,35.6,16.9,30.15,NNW,338,0.0,0.0,46,0.00,,CLR,0.00,VWS V14.01,2013-03-28 04:46:00,
2013-03-28 00:51:00,35.4,16.7,30.15,NNE,22,0.0,0.0,46,0.00,,CLR,0.00,VWS V14.01,2013-03-28 04:51:00,
2013-03-28 00:57:00,35.2,16.5,30.15,NNE,22,0.0,0.0,46,0.00,,CLR,0.00,VWS V14.01,2013-03-28 04:57:00,
2013-03-28 01:02:00,35.2,16.5,30.15,NNE,22,0.0,0.0,46,0.00,,CLR,0.00,VWS V14.01,2013-03-28 05:02:00,
2013-03-28 01:07:00,35.1,16.4,30.15,NNE,22,1.1,1.1,46,0.00,,CLR,0.00,VWS V14.01,2013-03-28 05:07:00,
2013-03-28 01:12:00,35.1,16.4,30.15,NNE,22,0.0,0.0,46,0.00,,CLR,0.00,VWS V14.01,2013-03-28 05:12:00,
2013-03-28 01:17:00,34.9,16.2,30.15,North,0,0.0,0.0,46,0.00,,CLR,0.00,VWS V14.01,2013-03-28 05:17:00,
2013-03-28 01:22:00,34.9,16.2,30.15,NNW,338,0.0,0.0,46,0.00,,CLR,0.00,VWS V14.01,2013-03-28 05:22:00,
2013-03-28 01:27:00,34.7,16.0,30.15,NNE,22,1.6,1.6,46,0.00,,CLR,0.00,VWS V14.01,2013-03-28 05:27:00,
2013-03-28 01:32:00,34.9,16.2,30.15,NNE,22,2.5,2.5,46,0.00,,CLR,0.00,VWS V14.01,2013-03-28 05:32:00,
2013-03-28 01:37:00,34.9,16.2,30.15,NNE,22,1.1,1.1,46,0.00,,CLR,0.00,VWS V14.01,2013-03-28 05:37:00,
2013-03-28 01:42:00,34.7,16.0,30.15,North,0,0.0,0.0,46,0.00,,CLR,0.00,VWS V14.01,2013-03-28 05:42:00,
2013-03-28 01:47:00,34.7,16.0,30.15,NNE,22,1.3,1.3,46,0.00,,CLR,0.00,VWS V14.01,2013-03-28 05:47:00,
2013-03-28 01:52:00,35.1,16.4,30.15,NNE,22,2.2,2.2,46,0.00,,CLR,0.00,VWS V14.01,2013-03-28 05:52:00,
2013-03-28 01:57:00,35.2,16.5,30.15,NNE,22,2.9,2.9,46,0.00,,CLR,0.00,VWS V14.01,2013-03-28 05:57:00,
2013-03-28 02:02:00,35.2,16.5,30.15,NNE,22,2.5,2.5,46,0.00,,CLR,0.00,VWS V14.01,2013-03-28 06:02:00,
2013-03-28 02:07:00,35.1,16.4,30.15,NE,45,1.1,1.1,46,0.00,,CLR,0.00,VWS V14.01,2013-03-28 06:07:00,
2013-03-28 02:12:00,35.2,16.5,30.15,NNE,22,1.6,1.6,46,0.00,,CLR,0.00,VWS V14.01,2013-03-28 06:12:00,
2013-03-28 02:18:00,35.1,16.4,30.15,NNE,22,0.0,0.0,46,0.00,,CLR,0.00,VWS V14.01,2013-03-28 06:18:00,
2013-03-28 02:23:00,34.7,16.0,30.15,NNE,22,2.5,2.5,46,0.00,,CLR,0.00,VWS V14.01,2013-03-28 06:23:00,
2013-03-28 02:28:00,34.9,16.2,30.15,North,0,3.4,3.4,46,0.00,,CLR,0.00,VWS V14.01,2013-03-28 06:28:00,
2013-03-28 02:33:00,35.2,16.5,30.15,NNE,22,2.7,2.7,46,0.00,,CLR,0.00,VWS V14.01,2013-03-28 06:33:00,
2013-03-28 02:38:00,35.2,16.5,30.15,NE,45,2.9,2.9,46,0.00,,CLR,0.00,VWS V14.01,2013-03-28 06:38:00,
2013-03-28 02:43:00,35.2,16.5,30.15,NNE,22,2.5,2.5,46,0.00,,CLR,0.00,VWS V14.01,2013-03-28 06:43:00,
2013-03-28 02:48:00,35.4,16.7,30.15,North,0,2.7,2.7,46,0.00,,CLR,0.00,VWS V14.01,2013-03-28 06:48:00,
2013-03-28 02:53:00,35.2,16.5,30.15,NNE,22,3.4,3.4,46,0.00,,CLR,0.00,VWS V14.01,2013-03-28 06:53:00,
2013-03-28 02:58:00,35.2,16.5,30.15,NNE,22,2.9,2.9,46,0.00,,CLR,0.00,VWS V14.01,2013-03-28 06:58:00,
2013-03-28 03:03:00,35.2,16.5,30.15,North,0,2.0,2.0,46,0.00,,CLR,0.00,VWS V14.01,2013-03-28 07:03:00,
2013-03-28 03:08:00,35.2,16.5,30.15,NNE,22,0.9,0.9,46,0.00,,CLR,0.00,VWS V14.01,2013-03-28 07:08:00,
2013-03-28 03:13:00,35.1,16.4,30.15,NNE,22,1.6,1.6,46,0.00,,CLR,0.00,VWS V14.01,2013-03-28 07:13:00,
2013-03-28 03:18:00,35.1,16.4,30.15,NNE,22,1.3,1.3,46,0.00,,CLR,0.00,VWS V14.01,2013-03-28 07:18:00,
2013-03-28 03:23:00,34.9,16.2,30.12,NNE,22,0.0,0.0,46,0.00,,CLR,0.00,VWS V14.01,2013-03-28 07:23:00,
2013-03-28 03:28:00,34.9,16.2,30.12,NNE,22,2.9,2.9,46,0.00,,CLR,0.00,VWS V14.01,2013-03-28 07:28:00,
2013-03-28 03:33:00,34.9,16.2,30.15,NNW,338,1.6,1.6,46,0.00,,CLR,0.00,VWS V14.01,2013-03-28 07:33:00,
2013-03-28 03:38:00,34.5,15.9,30.15,NNE,22,2.7,2.7,46,0.00,,CLR,0.00,VWS V14.01,2013-03-28 07:38:00,
2013-03-28 03:43:00,34.5,15.9,30.15,NNE,22,2.7,2.7,46,0.00,,CLR,0.00,VWS V14.01,2013-03-28 07:43:00,
2013-03-28 03:49:00,34.5,15.9,30.15,NNE,22,2.2,2.2,46,0.00,,CLR,0.00,VWS V14.01,2013-03-28 07:49:00,
2013-03-28 03:53:00,34.3,15.7,30.15,North,0,1.1,1.1,46,0.00,,CLR,0.00,VWS V14.01,2013-03-28 07:53:00,
2013-03-28 03:58:00,34.0,15.4,30.15,NNE,22,2.0,2.0,46,0.00,,CLR,0.00,VWS V14.01,2013-03-28 07:58:00,
2013-03-28 04:04:00,34.0,15.4,30.15,NNW,338,0.0,0.0,46,0.00,,CLR,0.00,VWS V14.01,2013-03-28 08:04:00,
2013-03-28 04:09:00,33.8,15.2,30.15,NNE,22,0.0,0.0,46,0.00,,CLR,0.00,VWS V14.01,2013-03-28 08:09:00,
2013-03-28 04:14:00,33.8,15.2,30.15,NNW,338,1.6,1.6,46,0.00,,CLR,0.00,VWS V14.01,2013-03-28 08:14:00,
2013-03-28 04:19:00,33.6,15.6,30.15,North,0,0.0,0.0,47,0.00,,CLR,0.00,VWS V14.01,2013-03-28 08:19:00,
2013-03-28 04:24:00,33.3,15.2,30.15,NNE,22,0.0,0.0,47,0.00,,CLR,0.00,VWS V14.01,2013-03-28 08:24:00,
2013-03-28 04:29:00,33.1,15.1,30.15,North,0,0.0,0.0,47,0.00,,CLR,0.00,VWS V14.01,2013-03-28 08:29:00,
2013-03-28 04:34:00,32.9,14.9,30.15,NNW,338,0.0,0.0,47,0.00,,CLR,0.00,VWS V14.01,2013-03-28 08:34:00,
2013-03-28 04:39:00,32.7,14.7,30.15,NNE,22,0.0,0.0,47,0.00,,CLR,0.00,VWS V14.01,2013-03-28 08:39:00,
2013-03-28 04:44:00,32.7,14.7,30.15,NW,315,0.0,0.0,47,0.00,,CLR,0.00,VWS V14.01,2013-03-28 08:44:00,
2013-03-28 04:49:00,32.7,14.7,30.15,NNW,338,0.0,0.0,47,0.00,,CLR,0.00,VWS V14.01,2013-03-28 08:49:00,
2013-03-28 04:54:00,32.7,14.7,30.15,NNW,338,0.0,0.0,47,0.00,,CLR,0.00,VWS V14.01,2013-03-28 08:54:00,
2013-03-28 04:59:00,32.9,14.9,30.15,NNW,338,0.0,0.0,47,0.00,,CLR,0.00,VWS V14.01,2013-03-28 08:59:00,
2013-03-28 05:04:00,32.7,14.7,30.15,NW,315,0.0,0.0,47,0.00,,CLR,0.00,VWS V14.01,2013-03-28 09:04:00,
2013-03-28 05:09:00,32.7,14.7,30.15,NNW,338,0.0,0.0,47,0.00,,CLR,0.00,VWS V14.01,2013-03-28 09:09:00,
2013-03-28 05:14:00,32.7,14.7,30.15,NNW,338,1.6,1.6,47,0.00,,CLR,0.00,VWS V14.01,2013-03-28 09:14:00,
2013-03-28 05:19:00,32.7,14.7,30.15,WNW,292,0.0,0.0,47,0.00,,CLR,0.00,VWS V14.01,2013-03-28 09:19:00,
2013-03-28 05:24:00,32.9,14.9,30.15,NNW,338,0.0,0.0,47,0.00,,CLR,0.00,VWS V14.01,2013-03-28 09:24:00,
2013-03-28 05:29:00,32.9,14.9,30.15,NNW,338,1.1,1.1,47,0.00,,CLR,0.00,VWS V14.01,2013-03-28 09:29:00,
2013-03-28 05:35:00,32.9,14.9,30.15,NNW,338,0.0,0.0,47,0.00,,CLR,0.00,VWS V14.01,2013-03-28 09:35:00,
2013-03-28 05:40:00,32.7,14.7,30.15,NNW,338,0.0,0.0,47,0.00,,CLR,0.00,VWS V14.01,2013-03-28 09:40:00,
2013-03-28 05:45:00,32.5,14.6,30.15,NNW,338,0.0,0.0,47,0.00,,CLR,0.00,VWS V14.01,2013-03-28 09:45:00,
2013-03-28 05:50:00,32.5,14.6,30.15,NNW,338,0.0,0.0,47,0.00,,CLR,0.00,VWS V14.01,2013-03-28 09:50:00,
2013-03-28 05:55:00,32.4,14.4,30.15,NNW,338,0.0,0.0,47,0.00,,CLR,0.00,VWS V14.01,2013-03-28 09:55:00,
2013-03-28 06:00:00,32.4,14.4,30.15,NW,315,0.0,0.0,47,0.00,,CLR,0.00,VWS V14.01,2013-03-28 10:00:00,
2013-03-28 06:05:00,32.2,14.2,30.15,NNW,338,0.0,0.0,47,0.00,,CLR,0.00,VWS V14.01,2013-03-28 10:05:00,
2013-03-28 06:10:00,32.0,14.1,30.15,North,0,0.0,0.0,47,0.00,,CLR,0.00,VWS V14.01,2013-03-28 10:10:00,
2013-03-28 06:15:00,32.0,14.1,30.15,West,270,0.0,0.0,47,0.00,,CLR,0.00,VWS V14.01,2013-03-28 10:15:00,
2013-03-28 06:20:00,31.8,13.9,30.15,West,270,0.0,0.0,47,0.00,,CLR,0.00,VWS V14.01,2013-03-28 10:20:00,
2013-03-28 06:25:00,31.6,13.7,30.15,West,270,0.0,0.0,47,0.00,,CLR,0.00,VWS V14.01,2013-03-28 10:25:00,
2013-03-28 06:30:00,31.5,13.6,30.15,WSW,248,0.0,0.0,47,0.00,,CLR,0.00,VWS V14.01,2013-03-28 10:30:00,
2013-03-28 06:35:00,31.1,13.2,30.18,West,270,1.6,1.6,47,0.00,,CLR,0.00,VWS V14.01,2013-03-28 10:35:00,
2013-03-28 06:40:00,30.7,12.9,30.18,West,270,0.0,0.0,47,0.00,,CLR,0.00,VWS V14.01,2013-03-28 10:40:00,
2013-03-28 06:45:00,30.4,12.6,30.18,NNW,338,0.0,0.0,47,0.00,,CLR,0.00,VWS V14.01,2013-03-28 10:45:00,
2013-03-28 06:50:00,30.2,12.4,30.18,North,0,0.0,0.0,47,0.00,,CLR,0.00,VWS V14.01,2013-03-28 10:50:00,
2013-03-28 06:55:00,30.4,12.6,30.18,NNW,338,0.0,0.0,47,0.00,,CLR,0.00,VWS V14.01,2013-03-28 10:55:00,
2013-03-28 07:00:00,31.1,13.2,30.18,NNW,338,0.0,0.0,47,0.00,,CLR,0.00,VWS V14.01,2013-03-28 11:00:00,
2013-03-28 07:05:00,31.3,13.4,30.18,North,0,1.1,1.1,47,0.00,,CLR,0.00,VWS V14.01,2013-03-28 11:05:00,
2013-03-28 07:10:00,31.8,13.9,30.18,NNW,338,0.0,0.0,47,0.00,,CLR,0.00,VWS V14.01,2013-03-28 11:10:00,
2013-03-28 07:16:00,32.2,14.2,30.18,NW,315,0.0,0.0,47,0.00,,CLR,0.00,VWS V14.01,2013-03-28 11:16:00,
2013-03-28 07:21:00,31.1,13.2,30.18,WSW,248,0.0,0.0,47,0.00,,CLR,0.00,VWS V14.01,2013-03-28 11:21:00,
2013-03-28 07:26:00,29.5,11.8,30.18,West,270,0.0,0.0,47,0.00,,CLR,0.00,VWS V14.01,2013-03-28 11:26:00,
2013-03-28 07:31:00,28.6,10.9,30.18,West,270,0.0,0.0,47,0.00,,CLR,0.00,VWS V14.01,2013-03-28 11:31:00,
2013-03-28 07:37:00,27.9,10.3,30.18,WNW,292,2.2,2.2,47,0.00,,CLR,0.00,VWS V14.01,2013-03-28 11:37:00,
2013-03-28 07:42:00,27.7,10.1,30.18,WSW,248,1.6,1.6,47,0.00,,CLR,0.00,VWS V14.01,2013-03-28 11:42:00,
2013-03-28 07:47:00,28.2,10.6,30.18,WSW,248,0.0,0.0,47,0.00,,CLR,0.00,VWS V14.01,2013-03-28 11:47:00,
2013-03-28 07:52:00,28.6,10.9,30.21,West,270,2.5,2.5,47,0.00,,CLR,0.00,VWS V14.01,2013-03-28 11:52:00,
2013-03-28 07:57:00,29.3,11.6,30.21,West,270,2.0,2.0,47,0.00,,CLR,0.00,VWS V14.01,2013-03-28 11:57:00,
2013-03-28 08:02:00,30.2,12.4,30.21,West,270,3.6,3.6,47,0.00,,CLR,0.00,VWS V14.01,2013-03-28 12:02:00,
2013-03-28 08:07:00,31.5,13.6,30.21,West,270,3.6,3.6,47,0.00,,CLR,0.00,VWS V14.01,2013-03-28 12:07:00,
2013-03-28 08:12:00,32.0,14.1,30.21,West,270,2.9,2.9,47,0.00,,CLR,0.00,VWS V14.01,2013-03-28 12:12:00,
2013-03-28 08:17:00,32.4,14.4,30.21,West,270,3.4,3.4,47,0.00,,CLR,0.00,VWS V14.01,2013-03-28 12:17:00,
2013-03-28 08:22:00,32.7,14.7,30.21,West,270,3.4,3.4,47,0.00,,CLR,0.00,VWS V14.01,2013-03-28 12:22:00,
2013-03-28 08:27:00,32.9,14.9,30.21,WNW,292,2.7,2.7,47,0.00,,CLR,0.00,VWS V14.01,2013-03-28 12:27:00,
2013-03-28 08:32:00,33.8,15.2,30.21,WSW,248,2.7,2.7,46,0.00,,CLR,0.00,VWS V14.01,2013-03-28 12:32:00,
2013-03-28 08:38:00,34.5,15.9,30.21,WSW,248,1.3,1.3,46,0.00,,CLR,0.00,VWS V14.01,2013-03-28 12:38:00,
2013-03-28 08:43:00,35.1,16.4,30.21,NW,315,0.0,0.0,46,0.00,,CLR,0.00,VWS V14.01,2013-03-28 12:43:00,
2013-03-28 08:48:00,36.3,17.5,30.21,NW,315,1.6,1.6,46,0.00,,CLR,0.00,VWS V14.01,2013-03-28 12:48:00,
2013-03-28 08:53:00,37.2,18.4,30.21,NNW,338,2.5,2.5,46,0.00,,CLR,0.00,VWS V14.01,2013-03-28 12:53:00,
2013-03-28 08:58:00,38.1,18.7,30.21,North,0,4.9,4.9,45,0.00,,CLR,0.00,VWS V14.01,2013-03-28 12:58:00,
2013-03-28 09:03:00,38.8,19.3,30.21,NNW,338,1.6,1.6,45,0.00,,CLR,0.00,VWS V14.01,2013-03-28 13:03:00,
2013-03-28 09:08:00,40.5,20.8,30.21,NW,315,4.7,4.7,45,0.00,,CLR,0.00,VWS V14.01,2013-03-28 13:08:00,
2013-03-28 09:13:00,40.6,21.0,30.21,NW,315,4.7,4.7,45,0.00,,CLR,0.00,VWS V14.01,2013-03-28 13:13:00,
2013-03-28 09:18:00,41.0,21.3,30.21,NNW,338,3.6,3.6,45,0.00,,CLR,0.00,VWS V14.01,2013-03-28 13:18:00,
2013-03-28 09:23:00,41.7,22.0,30.21,NW,315,5.4,5.4,45,0.00,,CLR,0.00,VWS V14.01,2013-03-28 13:23:00,
2013-03-28 09:28:00,42.3,22.5,30.21,NNW,338,4.5,4.5,45,0.00,,CLR,0.00,VWS V14.01,2013-03-28 13:28:00,
2013-03-28 09:33:00,42.6,22.8,30.21,NNW,338,3.6,3.6,45,0.00,,CLR,0.00,VWS V14.01,2013-03-28 13:33:00,
2013-03-28 09:38:00,43.0,22.6,30.21,NNW,338,5.6,5.6,44,0.00,,CLR,0.00,VWS V14.01,2013-03-28 13:38:00,
2013-03-28 09:43:00,43.2,22.7,30.21,NNE,22,3.4,3.4,44,0.00,,CLR,0.00,VWS V14.01,2013-03-28 13:43:00,
2013-03-28 09:48:00,43.7,23.2,30.21,North,0,7.6,7.6,44,0.00,,CLR,0.00,VWS V14.01,2013-03-28 13:48:00,
2013-03-28 09:53:00,43.7,23.2,30.21,NE,45,2.9,2.9,44,0.00,,CLR,0.00,VWS V14.01,2013-03-28 13:53:00,
2013-03-28 09:58:00,45.3,24.7,30.21,NNW,338,2.9,2.9,44,0.00,,CLR,0.00,VWS V14.01,2013-03-28 13:58:00,
2013-03-28 10:04:00,45.1,24.5,30.21,NNE,22,5.8,5.8,44,0.00,,CLR,0.00,VWS V14.01,2013-03-28 14:04:00,
2013-03-28 10:09:00,44.8,24.2,30.21,NNW,338,7.2,7.2,44,0.00,,CLR,0.00,VWS V14.01,2013-03-28 14:09:00,
2013-03-28 10:14:00,44.2,23.7,30.21,North,0,5.4,5.4,44,0.00,,CLR,0.00,VWS V14.01,2013-03-28 14:14:00,
2013-03-28 10:19:00,44.6,24.0,30.21,North,0,4.3,4.3,44,0.00,,CLR,0.00,VWS V14.01,2013-03-28 14:19:00,
2013-03-28 10:24:00,45.0,24.4,30.21,WNW,292,5.4,5.4,44,0.00,,CLR,0.00,VWS V14.01,2013-03-28 14:24:00,
2013-03-28 10:29:00,45.3,24.7,30.21,WNW,292,6.0,6.0,44,0.00,,CLR,0.00,VWS V14.01,2013-03-28 14:29:00,
2013-03-28 10:34:00,45.5,24.9,30.18,NNW,338,2.5,2.5,44,0.00,,CLR,0.00,VWS V14.01,2013-03-28 14:34:00,
2013-03-28 10:39:00,45.9,25.2,30.18,NNW,338,3.4,3.4,44,0.00,,CLR,0.00,VWS V14.01,2013-03-28 14:39:00,
2013-03-28 10:44:00,46.2,25.5,30.18,North,0,7.2,7.2,44,0.00,,CLR,0.00,VWS V14.01,2013-03-28 14:44:00,
2013-03-28 10:49:00,46.6,25.3,30.21,NW,315,2.0,2.0,43,0.00,,CLR,0.00,VWS V14.01,2013-03-28 14:49:00,
2013-03-28 10:54:00,46.0,25.4,30.21,NW,315,6.5,6.5,44,0.00,,CLR,0.00,VWS V14.01,2013-03-28 14:54:00,
2013-03-28 10:59:00,46.2,25.5,30.21,NW,315,3.4,3.4,44,0.00,,CLR,0.00,VWS V14.01,2013-03-28 14:59:00,
2013-03-28 11:04:00,46.8,25.5,30.21,NNW,338,5.8,5.8,43,0.00,,CLR,0.00,VWS V14.01,2013-03-28 15:04:00,
2013-03-28 11:09:00,47.1,25.8,30.21,NNW,338,2.7,2.7,43,0.00,,CLR,0.00,VWS V14.01,2013-03-28 15:09:00,
2013-03-28 11:14:00,46.9,25.6,30.21,WNW,292,6.0,6.0,43,0.00,,CLR,0.00,VWS V14.01,2013-03-28 15:14:00,
2013-03-28 11:19:00,46.9,25.6,30.21,West,270,6.3,6.3,43,0.00,,CLR,0.00,VWS V14.01,2013-03-28 15:19:00,
2013-03-28 11:24:00,46.8,25.5,30.21,West,270,6.0,6.0,43,0.00,,CLR,0.00,VWS V14.01,2013-03-28 15:24:00,
2013-03-28 11:29:00,47.7,26.3,30.21,WNW,292,3.1,3.1,43,0.00,,CLR,0.00,VWS V14.01,2013-03-28 15:29:00,
2013-03-28 11:34:00,48.0,26.6,30.21,WNW,292,6.3,6.3,43,0.00,,CLR,0.00,VWS V14.01,2013-03-28 15:34:00,
2013-03-28 11:39:00,48.0,26.6,30.21,WNW,292,7.2,7.2,43,0.00,,CLR,0.00,VWS V14.01,2013-03-28 15:39:00,
2013-03-28 11:45:00,48.2,26.8,30.21,North,0,4.0,4.0,43,0.00,,CLR,0.00,VWS V14.01,2013-03-28 15:45:00,
2013-03-28 11:50:00,47.5,26.1,30.21,WSW,248,7.6,7.6,43,0.00,,CLR,0.00,VWS V14.01,2013-03-28 15:50:00,
2013-03-28 11:55:00,47.7,26.3,30.21,North,0,3.6,3.6,43,0.00,,CLR,0.00,VWS V14.01,2013-03-28 15:55:00,
2013-03-28 12:00:00,48.0,26.6,30.21,NNW,338,2.0,2.0,43,0.00,,CLR,0.00,VWS V14.01,2013-03-28 16:00:00,
2013-03-28 12:05:00,48.6,27.1,30.18,NNE,22,6.0,6.0,43,0.00,,CLR,0.00,VWS V14.01,2013-03-28 16:05:00,
2013-03-28 12:10:00,49.5,27.9,30.18,WNW,292,4.9,4.9,43,0.00,,CLR,0.00,VWS V14.01,2013-03-28 16:10:00,
2013-03-28 12:15:00,48.4,26.9,30.18,West,270,5.4,5.4,43,0.00,,CLR,0.00,VWS V14.01,2013-03-28 16:15:00,
2013-03-28 12:20:00,48.7,27.3,30.21,NW,315,3.1,3.1,43,0.00,,CLR,0.00,VWS V14.01,2013-03-28 16:20:00,
2013-03-28 12:25:00,48.7,27.3,30.21,WNW,292,7.2,7.2,43,0.00,,CLR,0.00,VWS V14.01,2013-03-28 16:25:00,
2013-03-28 12:30:00,48.9,27.4,30.21,NE,45,5.4,5.4,43,0.00,,CLR,0.00,VWS V14.01,2013-03-28 16:30:00,
2013-03-28 12:35:00,49.5,27.9,30.18,NNE,22,7.8,7.8,43,0.00,,CLR,0.00,VWS V14.01,2013-03-28 16:35:00,
2013-03-28 12:40:00,49.6,28.1,30.18,West,270,3.8,3.8,43,0.00,,CLR,0.00,VWS V14.01,2013-03-28 16:40:00,
2013-03-28 12:45:00,48.4,26.9,30.18,West,270,10.1,10.1,43,0.00,,CLR,0.00,VWS V14.01,2013-03-28 16:45:00,
2013-03-28 12:50:00,50.2,28.6,30.18,NNE,22,5.8,5.8,43,0.00,,CLR,0.00,VWS V14.01,2013-03-28 16:50:00,
2013-03-28 12:55:00,50.0,28.4,30.18,NNW,338,6.3,6.3,43,0.00,,CLR,0.00,VWS V14.01,2013-03-28 16:55:00,
2013-03-28 13:00:00,50.4,28.7,30.18,West,270,5.6,5.6,43,0.00,,CLR,0.00,VWS V14.01,2013-03-28 17:00:00,
2013-03-28 13:05:00,50.9,29.2,30.18,NNE,22,5.8,5.8,43,0.00,,CLR,0.00,VWS V14.01,2013-03-28 17:05:00,
2013-03-28 13:10:00,50.5,28.9,30.18,NNW,338,6.5,6.5,43,0.00,,CLR,0.00,VWS V14.01,2013-03-28 17:10:00,
2013-03-28 13:15:00,51.4,29.7,30.18,WNW,292,4.0,4.0,43,0.00,,CLR,0.00,VWS V14.01,2013-03-28 17:15:00,
2013-03-28 13:21:00,50.5,28.9,30.18,West,270,9.2,9.2,43,0.00,,CLR,0.00,VWS V14.01,2013-03-28 17:21:00,
2013-03-28 13:26:00,51.4,29.7,30.18,WNW,292,3.4,3.4,43,0.00,,CLR,0.00,VWS V14.01,2013-03-28 17:26:00,
2013-03-28 13:31:00,51.1,29.4,30.18,North,0,5.8,5.8,43,0.00,,CLR,0.00,VWS V14.01,2013-03-28 17:31:00,
2013-03-28 13:36:00,50.0,28.4,30.18,West,270,12.3,12.3,43,0.00,,CLR,0.00,VWS V14.01,2013-03-28 17:36:00,
2013-03-28 13:41:00,50.9,29.2,30.18,NW,315,6.5,6.5,43,0.00,,CLR,0.00,VWS V14.01,2013-03-28 17:41:00,
2013-03-28 13:47:00,51.3,29.5,30.18,West,270,3.6,3.6,43,0.00,,CLR,0.00,VWS V14.01,2013-03-28 17:47:00,
2013-03-28 13:52:00,51.6,29.9,30.18,WNW,292,6.0,6.0,43,0.00,,CLR,0.00,VWS V14.01,2013-03-28 17:52:00,
2013-03-28 13:57:00,51.3,29.5,30.18,NW,315,3.6,3.6,43,0.00,,CLR,0.00,VWS V14.01,2013-03-28 17:57:00,
2013-03-28 14:02:00,51.8,29.5,30.18,NW,315,4.0,4.0,42,0.00,,CLR,0.00,VWS V14.01,2013-03-28 18:02:00,
2013-03-28 14:07:00,52.2,29.8,30.15,North,0,5.4,5.4,42,0.00,,CLR,0.00,VWS V14.01,2013-03-28 18:07:00,
2013-03-28 14:12:00,53.1,30.6,30.15,WSW,248,4.9,4.9,42,0.00,,CLR,0.00,VWS V14.01,2013-03-28 18:12:00,
2013-03-28 14:17:00,52.9,30.4,30.15,NW,315,10.5,10.5,42,0.00,,CLR,0.00,VWS V14.01,2013-03-28 18:17:00,
2013-03-28 14:22:00,52.2,29.8,30.15,WNW,292,6.0,6.0,42,0.00,,CLR,0.00,VWS V14.01,2013-03-28 18:22:00,
2013-03-28 14:27:00,52.9,30.4,30.15,North,0,5.4,5.4,42,0.00,,CLR,0.00,VWS V14.01,2013-03-28 18:27:00,
2013-03-28 14:32:00,52.9,30.4,30.15,NW,315,7.4,7.4,42,0.00,,CLR,0.00,VWS V14.01,2013-03-28 18:32:00,
2013-03-28 14:37:00,53.2,30.8,30.12,WNW,292,7.8,7.8,42,0.00,,CLR,0.00,VWS V14.01,2013-03-28 18:37:00,
2013-03-28 14:42:00,52.7,30.3,30.12,North,0,5.6,5.6,42,0.00,,CLR,0.00,VWS V14.01,2013-03-28 18:42:00,
2013-03-28 14:47:00,53.2,30.8,30.12,NW,315,3.4,3.4,42,0.00,,CLR,0.00,VWS V14.01,2013-03-28 18:47:00,
2013-03-28 14:52:00,54.3,31.7,30.15,West,270,3.1,3.1,42,0.00,,CLR,0.00,VWS V14.01,2013-03-28 18:52:00,
2013-03-28 14:57:00,54.3,31.7,30.15,NNW,338,2.2,2.2,42,0.00,,CLR,0.00,VWS V14.01,2013-03-28 18:57:00,
2013-03-28 15:02:00,54.1,31.6,30.15,NE,45,7.8,7.8,42,0.00,,CLR,0.00,VWS V14.01,2013-03-28 19:02:00,
2013-03-28 15:07:00,54.0,31.4,30.15,WSW,248,3.1,3.1,42,0.00,,CLR,0.00,VWS V14.01,2013-03-28 19:07:00,
2013-03-28 15:12:00,54.3,31.7,30.15,North,0,1.3,1.3,42,0.00,,CLR,0.00,VWS V14.01,2013-03-28 19:12:00,
2013-03-28 15:17:00,54.3,31.7,30.15,NNW,338,5.6,5.6,42,0.00,,CLR,0.00,VWS V14.01,2013-03-28 19:17:00,
2013-03-28 15:22:00,54.3,31.7,30.15,NNE,22,6.0,6.0,42,0.00,,CLR,0.00,VWS V14.01,2013-03-28 19:22:00,
2013-03-28 15:27:00,54.7,32.1,30.15,WNW,292,7.2,7.2,42,0.00,,CLR,0.00,VWS V14.01,2013-03-28 19:27:00,
2013-03-28 15:33:00,55.6,32.3,30.15,NNE,22,6.5,6.5,41,0.00,,CLR,0.00,VWS V14.01,2013-03-28 19:33:00,
2013-03-28 15:38:00,55.9,32.6,30.12,NNW,338,7.8,7.8,41,0.00,,CLR,0.00,VWS V14.01,2013-03-28 19:38:00,
2013-03-28 15:43:00,55.6,32.3,30.12,NE,45,7.2,7.2,41,0.00,,CLR,0.00,VWS V14.01,2013-03-28 19:43:00,
2013-03-28 15:48:00,55.4,32.1,30.12,WNW,292,6.0,6.0,41,0.00,,CLR,0.00,VWS V14.01,2013-03-28 19:48:00,
2013-03-28 15:53:00,54.7,32.1,30.12,NNW,338,8.5,8.5,42,0.00,,CLR,0.00,VWS V14.01,2013-03-28 19:53:00,
2013-03-28 15:58:00,55.4,32.1,30.12,North,0,6.5,6.5,41,0.00,,CLR,0.00,VWS V14.01,2013-03-28 19:58:00,
2013-03-28 16:03:00,55.4,32.1,30.12,NNE,22,8.5,8.5,41,0.00,,CLR,0.00,VWS V14.01,2013-03-28 20:03:00,
2013-03-28 16:08:00,56.5,33.1,30.12,NNW,338,6.3,6.3,41,0.00,,CLR,0.00,VWS V14.01,2013-03-28 20:08:00,
2013-03-28 16:13:00,57.0,33.6,30.12,WSW,248,0.9,0.9,41,0.00,,CLR,0.00,VWS V14.01,2013-03-28 20:13:00,
2013-03-28 16:18:00,56.1,32.8,30.12,NW,315,7.4,7.4,41,0.00,,CLR,0.00,VWS V14.01,2013-03-28 20:18:00,
2013-03-28 16:23:00,56.5,33.1,30.09,NNE,22,3.8,3.8,41,0.00,,CLR,0.00,VWS V14.01,2013-03-28 20:23:00,
2013-03-28 16:28:00,57.2,33.7,30.09,NNE,22,5.4,5.4,41,0.00,,CLR,0.00,VWS V14.01,2013-03-28 20:28:00,
2013-03-28 16:33:00,56.8,33.4,30.09,NNW,338,5.4,5.4,41,0.00,,CLR,0.00,VWS V14.01,2013-03-28 20:33:00,
2013-03-28 16:38:00,56.1,32.8,30.12,NNW,338,5.4,5.4,41,0.00,,CLR,0.00,VWS V14.01,2013-03-28 20:38:00,
2013-03-28 16:43:00,56.3,32.9,30.12,West,270,5.8,5.8,41,0.00,,CLR,0.00,VWS V14.01,2013-03-28 20:43:00,
2013-03-28 16:48:00,56.7,33.2,30.12,NNW,338,0.9,0.9,41,0.00,,CLR,0.00,VWS V14.01,2013-03-28 20:48:00,
2013-03-28 16:53:00,57.0,33.6,30.09,North,0,8.5,8.5,41,0.00,,CLR,0.00,VWS V14.01,2013-03-28 20:53:00,
2013-03-28 16:58:00,57.0,33.6,30.09,North,0,2.7,2.7,41,0.00,,CLR,0.00,VWS V14.01,2013-03-28 20:58:00,
2013-03-28 17:03:00,57.7,34.2,30.09,WSW,248,5.6,5.6,41,0.00,,CLR,0.00,VWS V14.01,2013-03-28 21:03:00,
2013-03-28 17:08:00,57.2,33.7,30.09,NNW,338,3.8,3.8,41,0.00,,CLR,0.00,VWS V14.01,2013-03-28 21:08:00,
2013-03-28 17:13:00,56.8,33.4,30.09,WNW,292,5.8,5.8,41,0.00,,CLR,0.00,VWS V14.01,2013-03-28 21:13:00,
2013-03-28 17:18:00,57.4,33.9,30.09,WSW,248,5.4,5.4,41,0.00,,CLR,0.00,VWS V14.01,2013-03-28 21:18:00,
2013-03-28 17:23:00,57.4,33.9,30.09,NNW,338,3.4,3.4,41,0.00,,CLR,0.00,VWS V14.01,2013-03-28 21:23:00,
2013-03-28 17:28:00,57.4,33.9,30.09,NNE,22,6.5,6.5,41,0.00,,CLR,0.00,VWS V14.01,2013-03-28 21:28:00,
2013-03-28 17:33:00,56.8,33.4,30.09,NNE,22,4.9,4.9,41,0.00,,CLR,0.00,VWS V14.01,2013-03-28 21:33:00,
2013-03-28 17:38:00,57.2,33.7,30.09,NE,45,5.6,5.6,41,0.00,,CLR,0.00,VWS V14.01,2013-03-28 21:38:00,
2013-03-28 17:43:00,57.2,33.7,30.09,North,0,5.8,5.8,41,0.00,,CLR,0.00,VWS V14.01,2013-03-28 21:43:00,
2013-03-28 17:48:00,57.0,33.6,30.09,West,270,5.6,5.6,41,0.00,,CLR,0.00,VWS V14.01,2013-03-28 21:48:00,
2013-03-28 17:53:00,57.4,33.9,30.09,NNW,338,2.7,2.7,41,0.00,,CLR,0.00,VWS V14.01,2013-03-28 21:53:00,
2013-03-28 17:58:00,57.2,33.7,30.09,North,0,6.3,6.3,41,0.00,,CLR,0.00,VWS V14.01,2013-03-28 21:58:00,
2013-03-28 18:03:00,57.0,33.6,30.09,North,0,2.9,2.9,41,0.00,,CLR,0.00,VWS V14.01,2013-03-28 22:03:00,
2013-03-28 18:08:00,57.2,33.7,30.09,NNW,338,7.6,7.6,41,0.00,,CLR,0.00,VWS V14.01,2013-03-28 22:08:00,
2013-03-28 18:13:00,56.7,33.2,30.09,NNW,338,4.3,4.3,41,0.00,,CLR,0.00,VWS V14.01,2013-03-28 22:13:00,
2013-03-28 18:18:00,57.0,33.6,30.09,North,0,9.0,9.0,41,0.00,,CLR,0.00,VWS V14.01,2013-03-28 22:18:00,
2013-03-28 18:23:00,56.5,33.1,30.09,NNE,22,5.8,5.8,41,0.00,,CLR,0.00,VWS V14.01,2013-03-28 22:23:00,
2013-03-28 18:28:00,56.3,32.9,30.09,North,0,4.0,4.0,41,0.00,,CLR,0.00,VWS V14.01,2013-03-28 22:28:00,
2013-03-28 18:33:00,56.3,32.9,30.09,North,0,4.0,4.0,41,0.00,,CLR,0.00,VWS V14.01,2013-03-28 22:33:00,
2013-03-28 18:38:00,56.1,32.8,30.09,North,0,5.8,5.8,41,0.00,,CLR,0.00,VWS V14.01,2013-03-28 22:38:00,
2013-03-28 18:43:00,56.3,32.9,30.09,NNE,22,3.4,3.4,41,0.00,,CLR,0.00,VWS V14.01,2013-03-28 22:43:00,
2013-03-28 18:48:00,55.9,32.6,30.09,NNE,22,2.5,2.5,41,0.00,,CLR,0.00,VWS V14.01,2013-03-28 22:48:00,
2013-03-28 18:53:00,55.6,32.3,30.12,North,0,4.3,4.3,41,0.00,,CLR,0.00,VWS V14.01,2013-03-28 22:53:00,
2013-03-28 18:58:00,55.4,32.1,30.12,North,0,0.0,0.0,41,0.00,,CLR,0.00,VWS V14.01,2013-03-28 22:58:00,
2013-03-28 19:03:00,54.9,32.2,30.12,North,0,2.9,2.9,42,0.00,,CLR,0.00,VWS V14.01,2013-03-28 23:03:00,
2013-03-28 19:08:00,54.3,31.7,30.12,NW,315,1.6,1.6,42,0.00,,CLR,0.00,VWS V14.01,2013-03-28 23:08:00,
2013-03-28 19:13:00,54.1,31.6,30.12,North,0,0.0,0.0,42,0.00,,CLR,0.00,VWS V14.01,2013-03-28 23:13:00,
2013-03-28 19:18:00,54.1,31.6,30.12,North,0,2.2,2.2,42,0.00,,CLR,0.00,VWS V14.01,2013-03-28 23:18:00,
2013-03-28 19:23:00,53.4,30.9,30.12,North,0,4.9,4.9,42,0.00,,CLR,0.00,VWS V14.01,2013-03-28 23:23:00,
2013-03-28 19:28:00,53.2,30.8,30.12,North,0,0.9,0.9,42,0.00,,CLR,0.00,VWS V14.01,2013-03-28 23:28:00,
2013-03-28 19:33:00,52.7,30.3,30.15,North,0,0.0,0.0,42,0.00,,CLR,0.00,VWS V14.01,2013-03-28 23:33:00,
2013-03-28 19:38:00,51.8,29.5,30.15,North,0,4.3,4.3,42,0.00,,CLR,0.00,VWS V14.01,2013-03-28 23:38:00,
2013-03-28 19:43:00,51.3,29.5,30.15,North,0,0.0,0.0,43,0.00,,CLR,0.00,VWS V14.01,2013-03-28 23:43:00,
2013-03-28 19:48:00,50.7,29.1,30.15,North,0,2.7,2.7,43,0.00,,CLR,0.00,VWS V14.01,2013-03-28 23:48:00,
2013-03-28 19:53:00,50.4,28.7,30.15,NNE,22,2.2,2.2,43,0.00,,CLR,0.00,VWS V14.01,2013-03-28 23:53:00,
2013-03-28 19:58:00,50.2,28.6,30.15,NE,45,4.3,4.3,43,0.00,,CLR,0.00,VWS V14.01,2013-03-28 23:58:00,
2013-03-28 20:04:00,50.2,28.6,30.15,North,0,3.1,3.1,43,0.00,,CLR,0.00,VWS V14.01,2013-03-29 00:04:00,
2013-03-28 20:09:00,49.8,28.2,30.15,North,0,0.0,0.0,43,0.00,,CLR,0.00,VWS V14.01,2013-03-29 00:09:00,
2013-03-28 20:14:00,49.5,27.9,30.15,NNE,22,0.0,0.0,43,0.00,,CLR,0.00,VWS V14.01,2013-03-29 00:14:00,
2013-03-28 20:19:00,48.7,27.3,30.15,NNE,22,0.9,0.9,43,0.00,,CLR,0.00,VWS V14.01,2013-03-29 00:19:00,
2013-03-28 20:24:00,48.2,26.8,30.15,NNE,22,0.0,0.0,43,0.00,,CLR,0.00,VWS V14.01,2013-03-29 00:24:00,
2013-03-28 20:29:00,47.8,26.4,30.15,NNE,22,0.0,0.0,43,0.00,,CLR,0.00,VWS V14.01,2013-03-29 00:29:00,
2013-03-28 20:34:00,47.5,26.1,30.15,NNE,22,1.3,1.3,43,0.00,,CLR,0.00,VWS V14.01,2013-03-29 00:34:00,
2013-03-28 20:39:00,47.3,26.0,30.15,North,0,0.0,0.0,43,0.00,,CLR,0.00,VWS V14.01,2013-03-29 00:39:00,
2013-03-28 20:44:00,47.1,25.8,30.15,North,0,0.0,0.0,43,0.00,,CLR,0.00,VWS V14.01,2013-03-29 00:44:00,
2013-03-28 20:49:00,46.8,25.5,30.15,North,0,1.1,1.1,43,0.00,,CLR,0.00,VWS V14.01,2013-03-29 00:49:00,
2013-03-28 20:54:00,46.6,25.3,30.15,NNW,338,2.7,2.7,43,0.00,,CLR,0.00,VWS V14.01,2013-03-29 00:54:00,
2013-03-28 20:59:00,46.2,25.5,30.15,North,0,0.0,0.0,44,0.00,,CLR,0.00,VWS V14.01,2013-03-29 00:59:00,
2013-03-28 21:04:00,45.9,25.2,30.12,North,0,0.9,0.9,44,0.00,,CLR,0.00,VWS V14.01,2013-03-29 01:04:00,
2013-03-28 21:10:00,45.7,25.0,30.12,NNW,338,3.1,3.1,44,0.00,,CLR,0.00,VWS V14.01,2013-03-29 01:10:00,
2013-03-28 21:15:00,46.2,25.5,30.12,NNW,338,5.6,5.6,44,0.00,,CLR,0.00,VWS V14.01,2013-03-29 01:15:00,
2013-03-28 21:20:00,46.4,25.1,30.15,NNE,22,3.1,3.1,43,0.00,,CLR,0.00,VWS V14.01,2013-03-29 01:20:00,
2013-03-28 21:25:00,46.4,25.1,30.15,NNE,22,3.6,3.6,43,0.00,,CLR,0.00,VWS V14.01,2013-03-29 01:25:00,
2013-03-28 21:30:00,46.4,25.1,30.15,NE,45,2.5,2.5,43,0.00,,CLR,0.00,VWS V14.01,2013-03-29 01:30:00,
2013-03-28 21:35:00,46.0,25.4,30.15,NE,45,0.0,0.0,44,0.00,,CLR,0.00,VWS V14.01,2013-03-29 01:35:00,
2013-03-28 21:40:00,45.9,25.2,30.15,NE,45,0.0,0.0,44,0.00,,CLR,0.00,VWS V14.01,2013-03-29 01:40:00,
2013-03-28 21:45:00,45.7,25.0,30.15,NE,45,0.0,0.0,44,0.00,,CLR,0.00,VWS V14.01,2013-03-29 01:45:00,
2013-03-28 21:50:00,45.5,24.9,30.18,NE,45,0.0,0.0,44,0.00,,CLR,0.00,VWS V14.01,2013-03-29 01:50:00,
2013-03-28 21:55:00,45.1,24.5,30.18,NNE,22,0.0,0.0,44,0.00,,CLR,0.00,VWS V14.01,2013-03-29 01:55:00,
2013-03-28 22:00:00,44.6,24.0,30.18,NNE,22,0.0,0.0,44,0.00,,CLR,0.00,VWS V14.01,2013-03-29 02:00:00,
2013-03-28 22:05:00,44.1,23.6,30.18,NNW,338,0.0,0.0,44,0.00,,CLR,0.00,VWS V14.01,2013-03-29 02:05:00,
2013-03-28 22:10:00,43.7,23.2,30.18,NNW,338,0.0,0.0,44,0.00,,CLR,0.00,VWS V14.01,2013-03-29 02:10:00,
2013-03-28 22:15:00,43.9,23.4,30.18,NW,315,1.6,1.6,44,0.00,,CLR,0.00,VWS V14.01,2013-03-29 02:15:00,
2013-03-28 22:20:00,43.7,23.2,30.18,NNW,338,0.0,0.0,44,0.00,,CLR,0.00,VWS V14.01,2013-03-29 02:20:00,
2013-03-28 22:26:00,43.5,23.1,30.18,NNW,338,0.0,0.0,44,0.00,,CLR,0.00,VWS V14.01,2013-03-29 02:26:00,
2013-03-28 22:31:00,43.5,23.1,30.18,NNE,22,1.1,1.1,44,0.00,,CLR,0.00,VWS V14.01,2013-03-29 02:31:00,
2013-03-28 22:36:00,43.5,23.1,30.18,NE,45,2.7,2.7,44,0.00,,CLR,0.00,VWS V14.01,2013-03-29 02:36:00,
2013-03-28 22:41:00,43.7,23.2,30.18,NE,45,2.5,2.5,44,0.00,,CLR,0.00,VWS V14.01,2013-03-29 02:41:00,
2013-03-28 22:46:00,43.7,23.2,30.18,NNE,22,2.5,2.5,44,0.00,,CLR,0.00,VWS V14.01,2013-03-29 02:46:00,
2013-03-28 22:51:00,43.5,23.1,30.21,NNE,22,0.0,0.0,44,0.00,,CLR,0.00,VWS V14.01,2013-03-29 02:51:00,
2013-03-28 22:56:00,42.8,22.4,30.21,NNE,22,0.0,0.0,44,0.00,,CLR,0.00,VWS V14.01,2013-03-29 02:56:00,
2013-03-28 23:01:00,41.9,22.1,30.21,NNE,22,0.0,0.0,45,0.00,,CLR,0.00,VWS V14.01,2013-03-29 03:01:00,
2013-03-28 23:07:00,41.2,21.5,30.21,NNE,22,1.3,1.3,45,0.00,,CLR,0.00,VWS V14.01,2013-03-29 03:07:00,
2013-03-28 23:12:00,40.6,21.0,30.21,NNE,22,3.1,3.1,45,0.00,,CLR,0.00,VWS V14.01,2013-03-29 03:12:00,
2013-03-28 23:17:00,42.1,22.3,30.21,NE,45,4.0,4.0,45,0.00,,CLR,0.00,VWS V14.01,2013-03-29 03:17:00,
2013-03-28 23:22:00,42.8,22.4,30.21,NNE,22,2.0,2.0,44,0.00,,CLR,0.00,VWS V14.01,2013-03-29 03:22:00,
2013-03-28 23:27:00,42.8,22.4,30.21,NNE,22,0.0,0.0,44,0.00,,CLR,0.00,VWS V14.01,2013-03-29 03:27:00,
2013-03-28 23:32:00,42.8,22.4,30.21,NNE,22,0.0,0.0,44,0.00,,CLR,0.00,VWS V14.01,2013-03-29 03:32:00,
2013-03-28 23:37:00,42.8,22.4,30.21,NNE,22,1.6,1.6,44,0.00,,CLR,0.00,VWS V14.01,2013-03-29 03:37:00,
2013-03-28 23:42:00,42.3,22.5,30.21,NNW,338,0.0,0.0,45,0.00,,CLR,0.00,VWS V14.01,2013-03-29 03:42:00,
2013-03-28 23:47:00,41.7,22.0,30.21,North,0,1.1,1.1,45,0.00,,CLR,0.00,VWS V14.01,2013-03-29 03:47:00,
2013-03-28 23:52:00,41.5,21.8,30.21,North,0,1.3,1.3,45,0.00,,CLR,0.00,VWS V14.01,2013-03-29 03:52:00,
2013-03-28 23:57:00,41.5,21.8,30.21,NNE,22,1.6,1.6,45,0.00,,CLR,0.00,VWS V14.01,2013-03-29 03:57:00,